Year,Month,Day,Hour,Minute,Value (Times are PST for temperature in C)
2015,04,20,00,00,9.70
2015,04,20,00,01,9.70
2015,04,20,00,02,9.70
2015,04,20,00,03,9.70
2015,04,20,00,04,9.70
2015,04,20,00,05,9.70
2015,04,20,00,06,9.70
2015,04,20,00,07,9.70
2015,04,20,00,08,9.70
2015,04,20,00,09,9.60
2015,04,20,00,10,9.70
2015,04,20,00,11,9.60
2015,04,20,00,12,9.60
2015,04,20,00,13,9.60
2015,04,20,00,14,9.60
2015,04,20,00,15,9.60
2015,04,20,00,16,9.60
2015,04,20,00,17,9.60
2015,04,20,00,18,9.60
2015,04,20,00,19,9.60
2015,04,20,00,20,9.70
2015,04,20,00,21,9.70
2015,04,20,00,22,9.70
2015,04,20,00,23,9.70
2015,04,20,00,24,9.70
2015,04,20,00,25,9.70
2015,04,20,00,26,9.80
2015,04,20,00,27,9.80
2015,04,20,00,28,9.80
2015,04,20,00,29,9.80
2015,04,20,00,30,9.70
2015,04,20,00,31,9.70
2015,04,20,00,32,9.70
2015,04,20,00,33,9.70
2015,04,20,00,34,9.70
2015,04,20,00,35,9.80
2015,04,20,00,36,9.80
2015,04,20,00,37,9.80
2015,04,20,00,38,9.80
2015,04,20,00,39,9.80
2015,04,20,00,40,9.80
2015,04,20,00,41,9.80
2015,04,20,00,42,9.80
2015,04,20,00,43,9.70
2015,04,20,00,44,9.70
2015,04,20,00,45,9.70
2015,04,20,00,46,9.60
2015,04,20,00,47,9.60
2015,04,20,00,48,9.60
2015,04,20,00,49,9.60
2015,04,20,00,50,9.50
2015,04,20,00,51,9.60
2015,04,20,00,52,9.60
2015,04,20,00,53,9.60
2015,04,20,00,54,9.60
2015,04,20,00,55,9.60
2015,04,20,00,56,9.60
2015,04,20,00,57,9.60
2015,04,20,00,58,9.70
2015,04,20,00,59,9.70
2015,04,20,01,00,9.70
2015,04,20,01,01,9.60
2015,04,20,01,02,9.70
2015,04,20,01,03,9.70
2015,04,20,01,04,9.80
2015,04,20,01,05,9.80
2015,04,20,01,06,9.80
2015,04,20,01,07,9.80
2015,04,20,01,08,9.80
2015,04,20,01,09,9.80
2015,04,20,01,10,9.70
2015,04,20,01,11,9.70
2015,04,20,01,12,9.70
2015,04,20,01,13,9.60
2015,04,20,01,14,9.60
2015,04,20,01,15,9.60
2015,04,20,01,16,9.50
2015,04,20,01,17,9.50
2015,04,20,01,18,9.50
2015,04,20,01,19,9.40
2015,04,20,01,20,9.40
2015,04,20,01,21,9.40
2015,04,20,01,22,9.30
2015,04,20,01,23,9.30
2015,04,20,01,24,9.30
2015,04,20,01,25,9.20
2015,04,20,01,26,9.20
2015,04,20,01,27,9.10
2015,04,20,01,28,9.10
2015,04,20,01,29,9.10
2015,04,20,01,30,9.00
2015,04,20,01,31,9.00
2015,04,20,01,32,8.90
2015,04,20,01,33,8.90
2015,04,20,01,34,8.80
2015,04,20,01,35,8.80
2015,04,20,01,36,8.80
2015,04,20,01,37,8.80
2015,04,20,01,38,8.70
2015,04,20,01,39,8.70
2015,04,20,01,40,8.70
2015,04,20,01,41,8.70
2015,04,20,01,42,8.80
2015,04,20,01,43,8.80
2015,04,20,01,44,8.80
2015,04,20,01,45,8.90
2015,04,20,01,46,9.00
2015,04,20,01,47,9.00
2015,04,20,01,48,9.10
2015,04,20,01,49,9.10
2015,04,20,01,50,9.10
2015,04,20,01,51,9.10
2015,04,20,01,52,9.10
2015,04,20,01,53,9.10
2015,04,20,01,54,9.10
2015,04,20,01,55,9.10
2015,04,20,01,56,9.10
2015,04,20,01,57,9.10
2015,04,20,01,58,9.10
2015,04,20,01,59,9.20
2015,04,20,02,00,9.30
2015,04,20,02,01,9.50
2015,04,20,02,02,9.70
2015,04,20,02,03,9.80
2015,04,20,02,04,9.90
2015,04,20,02,05,9.90
2015,04,20,02,06,9.90
2015,04,20,02,07,9.90
2015,04,20,02,08,9.90
2015,04,20,02,09,9.80
2015,04,20,02,10,9.80
2015,04,20,02,11,9.80
2015,04,20,02,12,9.70
2015,04,20,02,13,9.70
2015,04,20,02,14,9.60
2015,04,20,02,15,9.60
2015,04,20,02,16,9.60
2015,04,20,02,17,9.50
2015,04,20,02,18,9.50
2015,04,20,02,19,9.60
2015,04,20,02,20,9.70
2015,04,20,02,21,9.80
2015,04,20,02,22,9.80
2015,04,20,02,23,9.90
2015,04,20,02,24,10.00
2015,04,20,02,25,10.10
2015,04,20,02,26,10.20
2015,04,20,02,27,10.30
2015,04,20,02,28,10.30
2015,04,20,02,29,10.30
2015,04,20,02,30,10.30
2015,04,20,02,31,10.30
2015,04,20,02,32,10.20
2015,04,20,02,33,10.10
2015,04,20,02,34,10.10
2015,04,20,02,35,10.00
2015,04,20,02,36,9.90
2015,04,20,02,37,9.80
2015,04,20,02,38,9.70
2015,04,20,02,39,9.70
2015,04,20,02,40,9.60
2015,04,20,02,41,9.50
2015,04,20,02,42,9.40
2015,04,20,02,43,9.40
2015,04,20,02,44,9.30
2015,04,20,02,45,9.30
2015,04,20,02,46,9.20
2015,04,20,02,47,9.20
2015,04,20,02,48,9.20
2015,04,20,02,49,9.20
2015,04,20,02,50,9.20
2015,04,20,02,51,9.20
2015,04,20,02,52,9.20
2015,04,20,02,53,9.20
2015,04,20,02,54,9.20
2015,04,20,02,55,9.20
2015,04,20,02,56,9.20
2015,04,20,02,57,9.20
2015,04,20,02,58,9.20
2015,04,20,02,59,9.20
2015,04,20,03,00,9.20
2015,04,20,03,01,9.20
2015,04,20,03,02,9.30
2015,04,20,03,03,9.30
2015,04,20,03,04,9.40
2015,04,20,03,05,9.40
2015,04,20,03,06,9.40
2015,04,20,03,07,9.50
2015,04,20,03,08,9.50
2015,04,20,03,09,9.60
2015,04,20,03,10,9.60
2015,04,20,03,11,9.60
2015,04,20,03,12,9.60
2015,04,20,03,13,9.70
2015,04,20,03,14,9.70
2015,04,20,03,15,9.70
2015,04,20,03,16,9.70
2015,04,20,03,17,9.80
2015,04,20,03,18,9.80
2015,04,20,03,19,9.80
2015,04,20,03,20,9.90
2015,04,20,03,21,9.90
2015,04,20,03,22,9.80
2015,04,20,03,23,9.80
2015,04,20,03,24,9.70
2015,04,20,03,25,9.60
2015,04,20,03,26,9.50
2015,04,20,03,27,9.50
2015,04,20,03,28,9.40
2015,04,20,03,29,9.30
2015,04,20,03,30,9.30
2015,04,20,03,31,9.20
2015,04,20,03,32,9.20
2015,04,20,03,33,9.10
2015,04,20,03,34,9.00
2015,04,20,03,35,9.00
2015,04,20,03,36,8.80
2015,04,20,03,37,8.80
2015,04,20,03,38,8.70
2015,04,20,03,39,8.60
2015,04,20,03,40,8.50
2015,04,20,03,41,8.40
2015,04,20,03,42,8.30
2015,04,20,03,43,8.30
2015,04,20,03,44,8.20
2015,04,20,03,45,8.10
2015,04,20,03,46,8.10
2015,04,20,03,47,8.10
2015,04,20,03,48,8.00
2015,04,20,03,49,8.00
2015,04,20,03,50,7.90
2015,04,20,03,51,7.90
2015,04,20,03,52,7.90
2015,04,20,03,53,7.80
2015,04,20,03,54,7.80
2015,04,20,03,55,7.80
2015,04,20,03,56,7.80
2015,04,20,03,57,7.80
2015,04,20,03,58,7.80
2015,04,20,03,59,7.80
2015,04,20,04,00,7.70
2015,04,20,04,01,7.70
2015,04,20,04,02,7.70
2015,04,20,04,03,7.70
2015,04,20,04,04,7.70
2015,04,20,04,05,7.70
2015,04,20,04,06,7.60
2015,04,20,04,07,7.60
2015,04,20,04,08,7.60
2015,04,20,04,09,7.60
2015,04,20,04,10,7.50
2015,04,20,04,11,7.50
2015,04,20,04,12,7.50
2015,04,20,04,13,7.40
2015,04,20,04,14,7.40
2015,04,20,04,15,7.40
2015,04,20,04,16,7.30
2015,04,20,04,17,7.30
2015,04,20,04,18,7.30
2015,04,20,04,19,7.20
2015,04,20,04,20,7.20
2015,04,20,04,21,7.10
2015,04,20,04,22,7.10
2015,04,20,04,23,7.10
2015,04,20,04,24,7.10
2015,04,20,04,25,7.00
2015,04,20,04,26,7.00
2015,04,20,04,27,7.00
2015,04,20,04,28,7.00
2015,04,20,04,29,7.10
2015,04,20,04,30,7.10
2015,04,20,04,31,7.10
2015,04,20,04,32,7.10
2015,04,20,04,33,7.20
2015,04,20,04,34,7.20
2015,04,20,04,35,7.20
2015,04,20,04,36,7.20
2015,04,20,04,37,7.20
2015,04,20,04,38,7.20
2015,04,20,04,39,7.20
2015,04,20,04,40,7.20
2015,04,20,04,41,7.20
2015,04,20,04,42,7.20
2015,04,20,04,43,7.20
2015,04,20,04,44,7.20
2015,04,20,04,45,7.20
2015,04,20,04,46,7.10
2015,04,20,04,47,7.10
2015,04,20,04,48,7.10
2015,04,20,04,49,7.10
2015,04,20,04,50,7.10
2015,04,20,04,51,7.10
2015,04,20,04,52,7.10
2015,04,20,04,53,7.00
2015,04,20,04,54,7.00
2015,04,20,04,55,7.00
2015,04,20,04,56,7.00
2015,04,20,04,57,7.00
2015,04,20,04,58,7.10
2015,04,20,04,59,7.00
2015,04,20,05,00,7.00
2015,04,20,05,01,7.00
2015,04,20,05,02,7.00
2015,04,20,05,03,7.00
2015,04,20,05,04,7.00
2015,04,20,05,05,7.00
2015,04,20,05,06,6.90
2015,04,20,05,07,6.90
2015,04,20,05,08,6.90
2015,04,20,05,09,6.90
2015,04,20,05,10,6.90
2015,04,20,05,11,6.80
2015,04,20,05,12,6.80
2015,04,20,05,13,6.80
2015,04,20,05,14,6.80
2015,04,20,05,15,6.70
2015,04,20,05,16,6.70
2015,04,20,05,17,6.70
2015,04,20,05,18,6.70
2015,04,20,05,19,6.70
2015,04,20,05,20,6.60
2015,04,20,05,21,6.60
2015,04,20,05,22,6.60
2015,04,20,05,23,6.60
2015,04,20,05,24,6.50
2015,04,20,05,25,6.50
2015,04,20,05,26,6.50
2015,04,20,05,27,6.50
2015,04,20,05,28,6.50
2015,04,20,05,29,6.50
2015,04,20,05,30,6.40
2015,04,20,05,31,6.40
2015,04,20,05,32,6.40
2015,04,20,05,33,6.40
2015,04,20,05,34,6.40
2015,04,20,05,35,6.40
2015,04,20,05,36,6.40
2015,04,20,05,37,6.40
2015,04,20,05,38,6.40
2015,04,20,05,39,6.30
2015,04,20,05,40,6.30
2015,04,20,05,41,6.30
2015,04,20,05,42,6.30
2015,04,20,05,43,6.30
2015,04,20,05,44,6.30
2015,04,20,05,45,6.30
2015,04,20,05,46,6.30
2015,04,20,05,47,6.30
2015,04,20,05,48,6.30
2015,04,20,05,49,6.20
2015,04,20,05,50,6.20
2015,04,20,05,51,6.20
2015,04,20,05,52,6.20
2015,04,20,05,53,6.20
2015,04,20,05,54,6.20
2015,04,20,05,55,6.20
2015,04,20,05,56,6.20
2015,04,20,05,57,6.20
2015,04,20,05,58,6.10
2015,04,20,05,59,6.10
2015,04,20,06,00,6.10
2015,04,20,06,01,6.10
2015,04,20,06,02,6.10
2015,04,20,06,03,6.10
2015,04,20,06,04,6.10
2015,04,20,06,05,6.10
2015,04,20,06,06,6.10
2015,04,20,06,07,6.10
2015,04,20,06,08,6.10
2015,04,20,06,09,6.10
2015,04,20,06,10,6.00
2015,04,20,06,11,6.00
2015,04,20,06,12,6.00
2015,04,20,06,13,6.00
2015,04,20,06,14,6.00
2015,04,20,06,15,6.00
2015,04,20,06,16,6.00
2015,04,20,06,17,6.00
2015,04,20,06,18,6.00
2015,04,20,06,19,6.00
2015,04,20,06,20,6.00
2015,04,20,06,21,6.00
2015,04,20,06,22,6.00
2015,04,20,06,23,6.10
2015,04,20,06,24,6.00
2015,04,20,06,25,6.00
2015,04,20,06,26,6.00
2015,04,20,06,27,6.00
2015,04,20,06,28,6.00
2015,04,20,06,29,6.00
2015,04,20,06,30,6.00
2015,04,20,06,31,5.90
2015,04,20,06,32,5.90
2015,04,20,06,33,5.90
2015,04,20,06,34,5.90
2015,04,20,06,35,5.90
2015,04,20,06,36,5.90
2015,04,20,06,37,5.90
2015,04,20,06,38,5.90
2015,04,20,06,39,5.80
2015,04,20,06,40,5.80
2015,04,20,06,41,5.90
2015,04,20,06,42,5.90
2015,04,20,06,43,5.90
2015,04,20,06,44,5.90
2015,04,20,06,45,5.90
2015,04,20,06,46,5.90
2015,04,20,06,47,5.90
2015,04,20,06,48,5.90
2015,04,20,06,49,5.90
2015,04,20,06,50,5.90
2015,04,20,06,51,5.90
2015,04,20,06,52,6.00
2015,04,20,06,53,6.00
2015,04,20,06,54,6.00
2015,04,20,06,55,6.00
2015,04,20,06,56,6.00
2015,04,20,06,57,6.00
2015,04,20,06,58,6.10
2015,04,20,06,59,6.10
2015,04,20,07,00,6.10
2015,04,20,07,01,6.10
2015,04,20,07,02,6.10
2015,04,20,07,03,6.10
2015,04,20,07,04,6.10
2015,04,20,07,05,6.10
2015,04,20,07,06,6.10
2015,04,20,07,07,6.10
2015,04,20,07,08,6.20
2015,04,20,07,09,6.20
2015,04,20,07,10,6.20
2015,04,20,07,11,6.20
2015,04,20,07,12,6.20
2015,04,20,07,13,6.30
2015,04,20,07,14,6.30
2015,04,20,07,15,6.30
2015,04,20,07,16,6.30
2015,04,20,07,17,6.40
2015,04,20,07,18,6.40
2015,04,20,07,19,6.40
2015,04,20,07,20,6.40
2015,04,20,07,21,6.50
2015,04,20,07,22,6.50
2015,04,20,07,23,6.60
2015,04,20,07,24,6.60
2015,04,20,07,25,6.70
2015,04,20,07,26,6.80
2015,04,20,07,27,6.90
2015,04,20,07,28,7.00
2015,04,20,07,29,7.10
2015,04,20,07,30,7.20
2015,04,20,07,31,7.20
2015,04,20,07,32,7.30
2015,04,20,07,33,7.40
2015,04,20,07,34,7.60
2015,04,20,07,35,7.60
2015,04,20,07,36,7.70
2015,04,20,07,37,7.80
2015,04,20,07,38,7.90
2015,04,20,07,39,8.00
2015,04,20,07,40,8.10
2015,04,20,07,41,8.20
2015,04,20,07,42,8.20
2015,04,20,07,43,8.30
2015,04,20,07,44,8.40
2015,04,20,07,45,8.40
2015,04,20,07,46,8.40
2015,04,20,07,47,8.40
2015,04,20,07,48,8.40
2015,04,20,07,49,8.30
2015,04,20,07,50,8.30
2015,04,20,07,51,8.30
2015,04,20,07,52,8.30
2015,04,20,07,53,8.30
2015,04,20,07,54,8.30
2015,04,20,07,55,8.40
2015,04,20,07,56,8.40
2015,04,20,07,57,8.50
2015,04,20,07,58,8.60
2015,04,20,07,59,8.60
2015,04,20,08,00,8.70
2015,04,20,08,01,8.80
2015,04,20,08,02,8.80
2015,04,20,08,03,8.90
2015,04,20,08,04,9.10
2015,04,20,08,05,9.20
2015,04,20,08,06,9.30
2015,04,20,08,07,9.40
2015,04,20,08,08,9.50
2015,04,20,08,09,9.60
2015,04,20,08,10,9.60
2015,04,20,08,11,9.70
2015,04,20,08,12,9.80
2015,04,20,08,13,9.90
2015,04,20,08,14,9.90
2015,04,20,08,15,10.00
2015,04,20,08,16,10.10
2015,04,20,08,17,10.20
2015,04,20,08,18,10.40
2015,04,20,08,19,10.50
2015,04,20,08,20,10.60
2015,04,20,08,21,10.70
2015,04,20,08,22,10.80
2015,04,20,08,23,10.90
2015,04,20,08,24,11.00
2015,04,20,08,25,11.10
2015,04,20,08,26,11.20
2015,04,20,08,27,11.30
2015,04,20,08,28,11.40
2015,04,20,08,29,11.50
2015,04,20,08,30,11.60
2015,04,20,08,31,11.60
2015,04,20,08,32,11.70
2015,04,20,08,33,11.70
2015,04,20,08,34,11.70
2015,04,20,08,35,11.70
2015,04,20,08,36,11.70
2015,04,20,08,37,11.70
2015,04,20,08,38,11.70
2015,04,20,08,39,11.80
2015,04,20,08,40,11.80
2015,04,20,08,41,11.90
2015,04,20,08,42,12.00
2015,04,20,08,43,12.00
2015,04,20,08,44,12.20
2015,04,20,08,45,12.20
2015,04,20,08,46,12.30
2015,04,20,08,47,12.40
2015,04,20,08,48,12.40
2015,04,20,08,49,12.50
2015,04,20,08,50,12.50
2015,04,20,08,51,12.60
2015,04,20,08,52,12.60
2015,04,20,08,53,12.70
2015,04,20,08,54,12.70
2015,04,20,08,55,12.70
2015,04,20,08,56,12.70
2015,04,20,08,57,12.70
2015,04,20,08,58,12.80
2015,04,20,08,59,12.80
2015,04,20,09,00,12.80
2015,04,20,09,01,12.80
2015,04,20,09,02,12.90
2015,04,20,09,03,12.90
2015,04,20,09,04,12.90
2015,04,20,09,05,12.90
2015,04,20,09,06,12.90
2015,04,20,09,07,12.90
2015,04,20,09,08,12.90
2015,04,20,09,09,12.90
2015,04,20,09,10,12.90
2015,04,20,09,11,12.90
2015,04,20,09,12,13.00
2015,04,20,09,13,13.00
2015,04,20,09,14,13.10
2015,04,20,09,15,13.20
2015,04,20,09,16,13.20
2015,04,20,09,17,13.20
2015,04,20,09,18,13.20
2015,04,20,09,19,13.30
2015,04,20,09,20,13.30
2015,04,20,09,21,13.20
2015,04,20,09,22,13.20
2015,04,20,09,23,13.30
2015,04,20,09,24,13.30
2015,04,20,09,25,13.30
2015,04,20,09,26,13.30
2015,04,20,09,27,13.30
2015,04,20,09,28,13.40
2015,04,20,09,29,13.40
2015,04,20,09,30,13.50
2015,04,20,09,31,13.60
2015,04,20,09,32,13.60
2015,04,20,09,33,13.60
2015,04,20,09,34,13.70
2015,04,20,09,35,13.70
2015,04,20,09,36,13.80
2015,04,20,09,37,13.90
2015,04,20,09,38,14.00
2015,04,20,09,39,14.10
2015,04,20,09,40,14.00
2015,04,20,09,41,14.00
2015,04,20,09,42,14.00
2015,04,20,09,43,14.00
2015,04,20,09,44,13.90
2015,04,20,09,45,14.00
2015,04,20,09,46,14.00
2015,04,20,09,47,14.10
2015,04,20,09,48,14.20
2015,04,20,09,49,14.20
2015,04,20,09,50,14.20
2015,04,20,09,51,14.30
2015,04,20,09,52,14.30
2015,04,20,09,53,14.40
2015,04,20,09,54,14.40
2015,04,20,09,55,14.40
2015,04,20,09,56,14.30
2015,04,20,09,57,14.30
2015,04,20,09,58,14.30
2015,04,20,09,59,14.30
2015,04,20,10,00,14.30
2015,04,20,10,01,14.40
2015,04,20,10,02,14.50
2015,04,20,10,03,14.60
2015,04,20,10,04,14.70
2015,04,20,10,05,14.60
2015,04,20,10,06,14.60
2015,04,20,10,07,14.50
2015,04,20,10,08,14.40
2015,04,20,10,09,14.30
2015,04,20,10,10,14.10
2015,04,20,10,11,14.00
2015,04,20,10,12,13.90
2015,04,20,10,13,13.80
2015,04,20,10,14,13.60
2015,04,20,10,15,13.50
2015,04,20,10,16,13.50
2015,04,20,10,17,13.40
2015,04,20,10,18,13.40
2015,04,20,10,19,13.40
2015,04,20,10,20,13.30
2015,04,20,10,21,13.30
2015,04,20,10,22,13.30
2015,04,20,10,23,13.30
2015,04,20,10,24,13.40
2015,04,20,10,25,13.40
2015,04,20,10,26,13.40
2015,04,20,10,27,13.40
2015,04,20,10,28,13.30
2015,04,20,10,29,13.30
2015,04,20,10,30,13.40
2015,04,20,10,31,13.40
2015,04,20,10,32,13.40
2015,04,20,10,33,13.50
2015,04,20,10,34,13.50
2015,04,20,10,35,13.60
2015,04,20,10,36,13.60
2015,04,20,10,37,13.60
2015,04,20,10,38,13.60
2015,04,20,10,39,13.70
2015,04,20,10,40,13.70
2015,04,20,10,41,13.70
2015,04,20,10,42,13.80
2015,04,20,10,43,13.70
2015,04,20,10,44,13.60
2015,04,20,10,45,13.50
2015,04,20,10,46,13.40
2015,04,20,10,47,13.40
2015,04,20,10,48,13.40
2015,04,20,10,49,13.30
2015,04,20,10,50,13.30
2015,04,20,10,51,13.30
2015,04,20,10,52,13.30
2015,04,20,10,53,13.40
2015,04,20,10,54,13.50
2015,04,20,10,55,13.60
2015,04,20,10,56,13.60
2015,04,20,10,57,13.60
2015,04,20,10,58,13.70
2015,04,20,10,59,13.70
2015,04,20,11,00,13.70
2015,04,20,11,01,13.70
2015,04,20,11,02,13.70
2015,04,20,11,03,13.70
2015,04,20,11,04,13.70
2015,04,20,11,05,13.70
2015,04,20,11,06,13.70
2015,04,20,11,07,13.80
2015,04,20,11,08,13.80
2015,04,20,11,09,13.70
2015,04,20,11,10,13.70
2015,04,20,11,11,13.70
2015,04,20,11,12,13.80
2015,04,20,11,13,13.80
2015,04,20,11,14,13.90
2015,04,20,11,15,13.90
2015,04,20,11,16,14.00
2015,04,20,11,17,14.10
2015,04,20,11,18,14.20
2015,04,20,11,19,14.30
2015,04,20,11,20,14.30
2015,04,20,11,21,14.30
2015,04,20,11,22,14.40
2015,04,20,11,23,14.40
2015,04,20,11,24,14.40
2015,04,20,11,25,14.50
2015,04,20,11,26,14.50
2015,04,20,11,27,14.60
2015,04,20,11,28,14.60
2015,04,20,11,29,14.60
2015,04,20,11,30,14.60
2015,04,20,11,31,14.60
2015,04,20,11,32,14.60
2015,04,20,11,33,14.70
2015,04,20,11,34,14.70
2015,04,20,11,35,14.70
2015,04,20,11,36,14.70
2015,04,20,11,37,14.80
2015,04,20,11,38,14.80
2015,04,20,11,39,14.80
2015,04,20,11,40,14.70
2015,04,20,11,41,14.70
2015,04,20,11,42,14.70
2015,04,20,11,43,14.70
2015,04,20,11,44,14.70
2015,04,20,11,45,14.80
2015,04,20,11,46,14.90
2015,04,20,11,47,15.00
2015,04,20,11,48,15.10
2015,04,20,11,49,15.30
2015,04,20,11,50,15.30
2015,04,20,11,51,15.40
2015,04,20,11,52,15.50
2015,04,20,11,53,15.50
2015,04,20,11,54,15.60
2015,04,20,11,55,15.80
2015,04,20,11,56,15.90
2015,04,20,11,57,16.10
2015,04,20,11,58,16.10
2015,04,20,11,59,16.20
2015,04,20,12,00,16.20
2015,04,20,12,01,16.20
2015,04,20,12,02,16.20
2015,04,20,12,03,16.20
2015,04,20,12,04,16.20
2015,04,20,12,05,16.10
2015,04,20,12,06,16.10
2015,04,20,12,07,16.10
2015,04,20,12,08,16.10
2015,04,20,12,09,16.10
2015,04,20,12,10,16.20
2015,04,20,12,11,16.20
2015,04,20,12,12,16.20
2015,04,20,12,13,16.20
2015,04,20,12,14,16.30
2015,04,20,12,15,16.30
2015,04,20,12,16,16.30
2015,04,20,12,17,16.30
2015,04,20,12,18,16.30
2015,04,20,12,19,16.30
2015,04,20,12,20,16.20
2015,04,20,12,21,16.20
2015,04,20,12,22,16.20
2015,04,20,12,23,16.20
2015,04,20,12,24,16.20
2015,04,20,12,25,16.20
2015,04,20,12,26,16.20
2015,04,20,12,27,16.10
2015,04,20,12,28,16.10
2015,04,20,12,29,16.10
2015,04,20,12,30,16.10
2015,04,20,12,31,16.20
2015,04,20,12,32,16.20
2015,04,20,12,33,16.20
2015,04,20,12,34,16.30
2015,04,20,12,35,16.40
2015,04,20,12,36,16.50
2015,04,20,12,37,16.60
2015,04,20,12,38,16.70
2015,04,20,12,39,16.80
2015,04,20,12,40,16.80
2015,04,20,12,41,16.90
2015,04,20,12,42,16.90
2015,04,20,12,43,17.00
2015,04,20,12,44,17.00
2015,04,20,12,45,17.10
2015,04,20,12,46,17.10
2015,04,20,12,47,17.20
2015,04,20,12,48,17.10
2015,04,20,12,49,17.00
2015,04,20,12,50,16.90
2015,04,20,12,51,16.90
2015,04,20,12,52,16.80
2015,04,20,12,53,16.90
2015,04,20,12,54,17.00
2015,04,20,12,55,17.00
2015,04,20,12,56,17.10
2015,04,20,12,57,17.10
2015,04,20,12,58,17.10
2015,04,20,12,59,17.20
2015,04,20,13,00,17.20
2015,04,20,13,01,17.20
2015,04,20,13,02,17.20
2015,04,20,13,03,17.30
2015,04,20,13,04,17.20
2015,04,20,13,05,17.20
2015,04,20,13,06,17.30
2015,04,20,13,07,17.40
2015,04,20,13,08,17.50
2015,04,20,13,09,17.60
2015,04,20,13,10,17.70
2015,04,20,13,11,17.70
2015,04,20,13,12,17.80
2015,04,20,13,13,17.80
2015,04,20,13,14,17.80
2015,04,20,13,15,17.80
2015,04,20,13,16,17.80
2015,04,20,13,17,17.80
2015,04,20,13,18,17.80
2015,04,20,13,19,17.80
2015,04,20,13,20,17.80
2015,04,20,13,21,17.70
2015,04,20,13,22,17.60
2015,04,20,13,23,17.50
2015,04,20,13,24,17.40
2015,04,20,13,25,17.30
2015,04,20,13,26,17.30
2015,04,20,13,27,17.40
2015,04,20,13,28,17.40
2015,04,20,13,29,17.40
2015,04,20,13,30,17.40
2015,04,20,13,31,17.40
2015,04,20,13,32,17.40
2015,04,20,13,33,17.50
2015,04,20,13,34,17.60
2015,04,20,13,35,17.60
2015,04,20,13,36,17.60
2015,04,20,13,37,17.70
2015,04,20,13,38,17.80
2015,04,20,13,39,17.90
2015,04,20,13,40,17.90
2015,04,20,13,41,18.00
2015,04,20,13,42,18.00
2015,04,20,13,43,18.00
2015,04,20,13,44,17.90
2015,04,20,13,45,17.80
2015,04,20,13,46,17.80
2015,04,20,13,47,17.80
2015,04,20,13,48,17.90
2015,04,20,13,49,17.90
2015,04,20,13,50,18.10
2015,04,20,13,51,18.20
2015,04,20,13,52,18.30
2015,04,20,13,53,18.50
2015,04,20,13,54,18.60
2015,04,20,13,55,18.60
2015,04,20,13,56,18.70
2015,04,20,13,57,18.60
2015,04,20,13,58,18.50
2015,04,20,13,59,18.40
2015,04,20,14,00,18.30
2015,04,20,14,01,18.30
2015,04,20,14,02,18.30
2015,04,20,14,03,18.30
2015,04,20,14,04,18.20
2015,04,20,14,05,18.20
2015,04,20,14,06,18.20
2015,04,20,14,07,18.20
2015,04,20,14,08,18.10
2015,04,20,14,09,18.10
2015,04,20,14,10,18.10
2015,04,20,14,11,18.10
2015,04,20,14,12,18.20
2015,04,20,14,13,18.20
2015,04,20,14,14,18.10
2015,04,20,14,15,18.10
2015,04,20,14,16,18.20
2015,04,20,14,17,18.20
2015,04,20,14,18,18.30
2015,04,20,14,19,18.30
2015,04,20,14,20,18.40
2015,04,20,14,21,18.50
2015,04,20,14,22,18.60
2015,04,20,14,23,18.70
2015,04,20,14,24,18.70
2015,04,20,14,25,18.80
2015,04,20,14,26,18.70
2015,04,20,14,27,18.80
2015,04,20,14,28,18.90
2015,04,20,14,29,18.90
2015,04,20,14,30,18.80
2015,04,20,14,31,18.80
2015,04,20,14,32,18.80
2015,04,20,14,33,18.90
2015,04,20,14,34,18.90
2015,04,20,14,35,19.00
2015,04,20,14,36,19.00
2015,04,20,14,37,18.90
2015,04,20,14,38,18.80
2015,04,20,14,39,18.70
2015,04,20,14,40,18.70
2015,04,20,14,41,18.80
2015,04,20,14,42,18.80
2015,04,20,14,43,18.90
2015,04,20,14,44,19.00
2015,04,20,14,45,19.20
2015,04,20,14,46,19.20
2015,04,20,14,47,19.20
2015,04,20,14,48,19.10
2015,04,20,14,49,19.00
2015,04,20,14,50,19.00
2015,04,20,14,51,18.90
2015,04,20,14,52,18.90
2015,04,20,14,53,18.90
2015,04,20,14,54,19.00
2015,04,20,14,55,19.00
2015,04,20,14,56,19.00
2015,04,20,14,57,18.90
2015,04,20,14,58,19.00
2015,04,20,14,59,19.10
2015,04,20,15,00,19.30
2015,04,20,15,01,19.40
2015,04,20,15,02,19.60
2015,04,20,15,03,19.70
2015,04,20,15,04,19.70
2015,04,20,15,05,19.70
2015,04,20,15,06,19.70
2015,04,20,15,07,19.70
2015,04,20,15,08,19.80
2015,04,20,15,09,19.80
2015,04,20,15,10,19.90
2015,04,20,15,11,19.90
2015,04,20,15,12,19.90
2015,04,20,15,13,19.80
2015,04,20,15,14,19.80
2015,04,20,15,15,19.70
2015,04,20,15,16,19.60
2015,04,20,15,17,19.60
2015,04,20,15,18,19.60
2015,04,20,15,19,19.60
2015,04,20,15,20,19.60
2015,04,20,15,21,19.70
2015,04,20,15,22,19.70
2015,04,20,15,23,19.80
2015,04,20,15,24,19.70
2015,04,20,15,25,19.80
2015,04,20,15,26,19.80
2015,04,20,15,27,19.90
2015,04,20,15,28,19.90
2015,04,20,15,29,19.90
2015,04,20,15,30,20.00
2015,04,20,15,31,20.00
2015,04,20,15,32,20.00
2015,04,20,15,33,20.00
2015,04,20,15,34,20.00
2015,04,20,15,35,20.00
2015,04,20,15,36,20.00
2015,04,20,15,37,20.00
2015,04,20,15,38,20.10
2015,04,20,15,39,20.10
2015,04,20,15,40,20.10
2015,04,20,15,41,20.20
2015,04,20,15,42,20.30
2015,04,20,15,43,20.40
2015,04,20,15,44,20.40
2015,04,20,15,45,20.40
2015,04,20,15,46,20.40
2015,04,20,15,47,20.40
2015,04,20,15,48,20.40
2015,04,20,15,49,20.40
2015,04,20,15,50,20.40
2015,04,20,15,51,20.30
2015,04,20,15,52,20.20
2015,04,20,15,53,20.20
2015,04,20,15,54,20.10
2015,04,20,15,55,20.00
2015,04,20,15,56,19.90
2015,04,20,15,57,19.90
2015,04,20,15,58,19.80
2015,04,20,15,59,19.80
2015,04,20,16,00,19.80
2015,04,20,16,01,19.90
2015,04,20,16,02,19.90
2015,04,20,16,03,19.90
2015,04,20,16,04,19.90
2015,04,20,16,05,19.90
2015,04,20,16,06,20.00
2015,04,20,16,07,20.10
2015,04,20,16,08,20.20
2015,04,20,16,09,20.20
2015,04,20,16,10,20.30
2015,04,20,16,11,20.30
2015,04,20,16,12,20.40
2015,04,20,16,13,20.40
2015,04,20,16,14,20.40
2015,04,20,16,15,20.40
2015,04,20,16,16,20.30
2015,04,20,16,17,20.30
2015,04,20,16,18,20.20
2015,04,20,16,19,20.20
2015,04,20,16,20,20.20
2015,04,20,16,21,20.20
2015,04,20,16,22,20.20
2015,04,20,16,23,20.30
2015,04,20,16,24,20.30
2015,04,20,16,25,20.30
2015,04,20,16,26,20.30
2015,04,20,16,27,20.30
2015,04,20,16,28,20.30
2015,04,20,16,29,20.20
2015,04,20,16,30,20.20
2015,04,20,16,31,20.30
2015,04,20,16,32,20.30
2015,04,20,16,33,20.20
2015,04,20,16,34,20.20
2015,04,20,16,35,20.20
2015,04,20,16,36,20.10
2015,04,20,16,37,20.10
2015,04,20,16,38,20.00
2015,04,20,16,39,20.00
2015,04,20,16,40,19.90
2015,04,20,16,41,19.90
2015,04,20,16,42,19.90
2015,04,20,16,43,20.00
2015,04,20,16,44,20.00
2015,04,20,16,45,20.10
2015,04,20,16,46,20.20
2015,04,20,16,47,20.20
2015,04,20,16,48,20.30
2015,04,20,16,49,20.40
2015,04,20,16,50,20.40
2015,04,20,16,51,20.50
2015,04,20,16,52,20.50
2015,04,20,16,53,20.50
2015,04,20,16,54,20.60
2015,04,20,16,55,20.60
2015,04,20,16,56,20.60
2015,04,20,16,57,20.50
2015,04,20,16,58,20.50
2015,04,20,16,59,20.40
2015,04,20,17,00,20.40
2015,04,20,17,01,20.40
2015,04,20,17,02,20.50
2015,04,20,17,03,20.50
2015,04,20,17,04,20.70
2015,04,20,17,05,20.80
2015,04,20,17,06,20.90
2015,04,20,17,07,20.90
2015,04,20,17,08,20.90
2015,04,20,17,09,20.90
2015,04,20,17,10,20.90
2015,04,20,17,11,20.80
2015,04,20,17,12,20.80
2015,04,20,17,13,20.70
2015,04,20,17,14,20.80
2015,04,20,17,15,20.80
2015,04,20,17,16,20.80
2015,04,20,17,17,20.90
2015,04,20,17,18,21.00
2015,04,20,17,19,21.10
2015,04,20,17,20,21.20
2015,04,20,17,21,21.20
2015,04,20,17,22,21.30
2015,04,20,17,23,21.30
2015,04,20,17,24,21.40
2015,04,20,17,25,21.50
2015,04,20,17,26,21.60
2015,04,20,17,27,21.60
2015,04,20,17,28,21.70
2015,04,20,17,29,21.80
2015,04,20,17,30,21.80
2015,04,20,17,31,21.90
2015,04,20,17,32,22.00
2015,04,20,17,33,22.10
2015,04,20,17,34,22.20
2015,04,20,17,35,22.20
2015,04,20,17,36,22.30
2015,04,20,17,37,22.30
2015,04,20,17,38,22.30
2015,04,20,17,39,22.20
2015,04,20,17,40,22.20